Weather History for KBHK - May, 2013

Change the Weather History Date:

Monday, May 13, 2013

  Actual Average Record
Temperature  
Mean Temperature 71 °F -  
Max Temperature 89 °F 67 °F 93 °F (2001)
Min Temperature 55 °F 42 °F 16 °F (2004)
Cooling Degree Days 6    
Growing Degree Days 21 (Base 50)    
Moisture  
Dew Point 40 °F    
Average Humidity 34    
Maximum Humidity 57    
Minimum Humidity 17    
Precipitation  
Precipitation 0.00 in - - ()
Sea Level Pressure  
Sea Level Pressure 29.78 in    
Wind  
Wind Speed 8 mph (West)    
Max Wind Speed 23 mph    
Max Gust Speed 32 mph    
Visibility 10 miles    
Events      
Averages and records for this station are not official NWS values.
T = Trace of Precipitation, MM = Missing Value Source: NWS Daily Summary

Daily Weather History Graph

Daily Weather History Graph

Search for Another Location

Airport or City:

Trip Planner

Search our weather history database for the weather conditions in past years. The results will help you decide how hot, cold, wet, or windy it might be!

Date:

Astronomy

May. 13, 2013 Rise Set
Actual Time 5:25 AM MDT 8:21 PM MDT
Civil Twilight 4:50 AM MDT 8:56 PM MDT
Nautical Twilight 4:05 AM MDT 9:42 PM MDT
Astronomical Twilight 3:12 AM MDT 10:36 PM MDT
Moon 8:12 AM MDT (5/13) 11:32 PM MDT (5/13)
Length of Visible Light 16h 06m
Length of Day
14h 55m
Waxing Crescent, 12% of the Moon is Illuminated
May 13
Waxing Crescent
May 17
First Quarter
May 24
Full
May 31
Last Quarter
Jun 8
New

Hourly Weather History & Observations

Time (MDT) Temp. Dew Point Humidity Pressure Visibility Wind Dir Wind Speed Gust Speed Precip Events Conditions
12:51 AM 61.0 °F 37.9 °F 42% 29.79 in 10.0 mi WNW 6.9 mph - N/A   Clear
1:51 AM 59.0 °F 37.9 °F 46% 29.79 in 10.0 mi West 6.9 mph - N/A   Clear
2:51 AM 57.9 °F 37.9 °F 47% 29.80 in 10.0 mi WNW 6.9 mph - N/A   Clear
3:51 AM 60.1 °F 37.9 °F 44% 29.81 in 10.0 mi Calm Calm - N/A   Clear
4:51 AM 57.0 °F 39.0 °F 51% 29.82 in 10.0 mi Calm Calm - N/A   Scattered Clouds
5:51 AM 55.0 °F 39.0 °F 55% 29.84 in 10.0 mi Calm Calm - N/A   Clear
6:51 AM 57.0 °F 42.1 °F 57% 29.87 in 10.0 mi Calm Calm - N/A   Clear
7:51 AM 66.9 °F 44.1 °F 44% 29.87 in 10.0 mi West 4.6 mph - N/A   Clear
8:51 AM 71.1 °F 43.0 °F 36% 29.88 in 10.0 mi West 17.3 mph - N/A   Clear
9:51 AM 77.0 °F 39.9 °F 26% 29.87 in 10.0 mi WNW 23.0 mph 28.8 mph N/A   Clear
10:51 AM 80.1 °F 39.9 °F 24% 29.86 in 10.0 mi NW 19.6 mph 28.8 mph N/A   Clear
11:51 AM 81.0 °F 39.9 °F 23% 29.86 in 10.0 mi NW 18.4 mph 25.3 mph N/A   Clear
12:51 PM 84.0 °F 37.9 °F 19% 29.85 in 10.0 mi NW 17.3 mph 32.2 mph N/A   Clear
1:51 PM 84.0 °F 39.0 °F 20% 29.83 in 10.0 mi WNW 18.4 mph 25.3 mph N/A   Clear
2:51 PM 86.0 °F 39.0 °F 19% 29.81 in 10.0 mi West 16.1 mph 25.3 mph N/A   Clear
3:51 PM 87.1 °F 39.0 °F 18% 29.78 in 10.0 mi West 9.2 mph - N/A   Clear
4:51 PM 87.1 °F 37.0 °F 17% 29.75 in 10.0 mi WNW 10.4 mph 20.7 mph N/A   Clear
6:51 PM 84.9 °F 37.0 °F 18% 29.70 in 10.0 mi West 4.6 mph - N/A   Clear
7:51 PM 75.9 °F 45.0 °F 33% 29.66 in 10.0 mi SSE 4.6 mph - N/A   Clear
8:51 PM 68.0 °F 43.0 °F 40% 29.65 in 10.0 mi SSE 3.5 mph - N/A   Clear
9:51 PM 66.9 °F 37.9 °F 34% 29.62 in 10.0 mi South 10.4 mph - N/A   Partly Cloudy
10:51 PM 66.9 °F 37.9 °F 34% 29.58 in 10.0 mi South 10.4 mph - N/A   Clear
11:51 PM 68.0 °F 37.9 °F 33% 29.54 in 10.0 mi South 12.7 mph - N/A   Clear